TimeICT,TemperatureF,Dew PointF,Humidity,Sea Level PressureIn,VisibilityMPH,Wind Direction,Wind SpeedMPH,Gust SpeedMPH,PrecipitationIn,Events,Conditions,WindDirDegrees,DateUTC
12:00 AM,77.0,77.0,100,29.89,4.3,Calm,Calm,-,N/A,,Mostly Cloudy,0,2012-02-13 17:00:00
12:30 AM,77.0,75.2,94,29.89,4.3,Calm,Calm,-,N/A,,Mostly Cloudy,0,2012-02-13 17:30:00
1:00 AM,78,76,91,29.86,6,Calm,Calm,,,,Scattered Clouds,,2012-02-13 18:00:00
1:00 AM,75.2,75.2,100,29.89,4.3,Calm,Calm,-,N/A,,Mostly Cloudy,0,2012-02-13 18:00:00
1:30 AM,75.2,75.2,100,29.86,4.3,Calm,Calm,-,N/A,,Mostly Cloudy,0,2012-02-13 18:30:00
2:00 AM,75.2,73.4,94,29.86,4.3,Calm,Calm,-,N/A,,Scattered Clouds,0,2012-02-13 19:00:00
2:30 AM,75.2,73.4,94,29.83,4.3,Calm,Calm,-,N/A,,Mostly Cloudy,0,2012-02-13 19:30:00
3:00 AM,75.2,73.4,94,29.83,4.3,Calm,Calm,-,N/A,,Scattered Clouds,0,2012-02-13 20:00:00
3:30 AM,75.2,73.4,94,29.83,4.3,Calm,Calm,-,N/A,,Scattered Clouds,0,2012-02-13 20:30:00
4:00 AM,75.2,73.4,94,29.83,4.3,Calm,Calm,-,N/A,,Scattered Clouds,0,2012-02-13 21:00:00
4:30 AM,75.2,73.4,94,29.83,4.3,Calm,Calm,-,N/A,,Scattered Clouds,0,2012-02-13 21:30:00
5:00 AM,75.2,73.4,94,29.83,4.3,Calm,Calm,-,N/A,,Scattered Clouds,0,2012-02-13 22:00:00
5:30 AM,75.2,73.4,94,29.83,4.3,Calm,Calm,-,N/A,,Scattered Clouds,0,2012-02-13 22:30:00
6:00 AM,73.4,73.4,100,29.83,4.3,Calm,Calm,-,N/A,,Scattered Clouds,0,2012-02-13 23:00:00
6:30 AM,73.4,73.4,100,29.86,4.3,Calm,Calm,-,N/A,,Scattered Clouds,0,2012-02-13 23:30:00
7:00 AM,74,73,96,29.81,6,Calm,Calm,,,,Mist,,2012-02-14 00:00:00
7:00 AM,75.2,73.4,94,29.86,4.3,Calm,Calm,-,N/A,,Scattered Clouds,0,2012-02-14 00:00:00
7:30 AM,75.2,75.2,100,29.86,4.3,Calm,Calm,-,N/A,,Scattered Clouds,0,2012-02-14 00:30:00
8:00 AM,78.8,73.4,83,29.86,5.6,ENE,5.8,-,N/A,,Scattered Clouds,70,2012-02-14 01:00:00
8:30 AM,80.6,75.2,84,29.86,5.6,ENE,4.6,-,N/A,,Mostly Cloudy,70,2012-02-14 01:30:00
9:00 AM,82.4,75.2,79,29.86,5.6,ENE,8.1,-,N/A,,Mostly Cloudy,60,2012-02-14 02:00:00
9:30 AM,84.2,75.2,74,29.89,5.6,East,9.2,-,N/A,,Mostly Cloudy,80,2012-02-14 02:30:00
10:00 AM,84.2,73.4,70,29.89,5.6,East,11.5,-,N/A,,Mostly Cloudy,80,2012-02-14 03:00:00
10:30 AM,86.0,73.4,66,29.89,5.6,East,10.4,-,N/A,,Mostly Cloudy,80,2012-02-14 03:30:00
11:00 AM,86.0,73.4,66,29.89,5.6,East,10.4,-,N/A,,Mostly Cloudy,80,2012-02-14 04:00:00
11:30 AM,86.0,71.6,62,29.89,5.6,East,10.4,-,N/A,,Mostly Cloudy,90,2012-02-14 04:30:00
12:00 PM,87.8,69.8,55,29.86,5.6,East,5.8,-,N/A,,Mostly Cloudy,90,2012-02-14 05:00:00
12:30 PM,87.8,68.0,52,29.86,5.6,East,9.2,-,N/A,,Mostly Cloudy,80,2012-02-14 05:30:00
1:00 PM,88,70,47,29.84,6,East,5.8,,,,Mist,80,2012-02-14 06:00:00
1:00 PM,87.8,71.6,58,29.83,5.6,NE,8.1,-,N/A,,Mostly Cloudy,40,2012-02-14 06:00:00
1:30 PM,87.8,69.8,55,29.83,5.6,ENE,10.4,-,N/A,,Mostly Cloudy,60,2012-02-14 06:30:00
2:00 PM,89.6,71.6,55,29.80,5.6,ESE,6.9,-,N/A,,Mostly Cloudy,110,2012-02-14 07:00:00
3:00 PM,89.6,71.6,55,29.77,5.6,East,9.2,-,N/A,,Mostly Cloudy,100,2012-02-14 08:00:00
3:30 PM,89.6,71.6,55,29.77,5.6,ENE,8.1,-,N/A,,Mostly Cloudy,70,2012-02-14 08:30:00
4:00 PM,87.8,73.4,62,29.77,5.6,NW,6.9,-,N/A,,Mostly Cloudy,320,2012-02-14 09:00:00
4:30 PM,86.0,73.4,66,29.77,5.6,West,3.5,-,N/A,,Mostly Cloudy,270,2012-02-14 09:30:00
5:00 PM,86.0,73.4,66,29.77,5.6,NW,3.5,-,N/A,,Mostly Cloudy,310,2012-02-14 10:00:00
5:30 PM,86.0,73.4,66,29.77,5.6,Variable,3.5,-,N/A,,Mostly Cloudy,0,2012-02-14 10:30:00
6:00 PM,84.2,73.4,70,29.77,5.0,WNW,10.4,-,N/A,,Mostly Cloudy,290,2012-02-14 11:00:00
6:30 PM,84.2,73.4,70,29.77,5.0,WNW,9.2,-,N/A,,Mostly Cloudy,290,2012-02-14 11:30:00
7:00 PM,84,74,66,29.77,5,WNW,5.8,,,,Mist,300,2012-02-14 12:00:00
7:00 PM,82.4,73.4,74,29.77,5.0,WNW,6.9,-,N/A,,Mostly Cloudy,290,2012-02-14 12:00:00
7:30 PM,82.4,73.4,74,29.80,5.0,West,8.1,-,N/A,,Mostly Cloudy,280,2012-02-14 12:30:00
8:00 PM,82.4,73.4,74,29.80,5.0,West,8.1,-,N/A,,Mostly Cloudy,280,2012-02-14 13:00:00
8:30 PM,82.4,73.4,74,29.83,5.0,WNW,6.9,-,N/A,,Mostly Cloudy,290,2012-02-14 13:30:00
9:00 PM,82.4,73.4,74,29.83,5.0,WNW,4.6,-,N/A,,Mostly Cloudy,290,2012-02-14 14:00:00
9:30 PM,82.4,75.2,79,29.83,5.0,Variable,2.3,-,N/A,,Mostly Cloudy,0,2012-02-14 14:30:00
10:00 PM,80.6,73.4,79,29.83,5.0,Calm,Calm,-,N/A,,Mostly Cloudy,0,2012-02-14 15:00:00
10:30 PM,80.6,73.4,79,29.83,5.0,NW,3.5,-,N/A,,Mostly Cloudy,320,2012-02-14 15:30:00
11:00 PM,78.8,73.4,83,29.86,5.0,North,3.5,-,N/A,,Mostly Cloudy,350,2012-02-14 16:00:00
11:30 PM,78.8,73.4,83,29.86,5.0,Calm,Calm,-,N/A,,Mostly Cloudy,0,2012-02-14 16:30:00